QDA865 ZSWF-ZJSY

Flight info

Callsign QDA865
Flight time N/A
Altitude 35100
Route ZSWF YQG62X YQG X19 HZG X257 ZHO A461 LKO R343 ENKUS X28 LH W71 AGPOR V12 NYB G221 UPRIS UPRS2C I08Z ZJSY
Aircraft A320/M-SDE3FGHIRWY/LB1

Departure

Time 2026-05-04 12:31
Airport Weifang Nanyuan Airport (ZSWF)

Arrival

Time N/A
Airport Sanya Phoenix International Airport (ZJSY)
Time Latitude Longitude Altitude Speed Heading
2026-05-04 12:19 36.64137 119.11474 155 ft 0 kts 255°
2026-05-04 12:24 36.64139 119.11482 152 ft 2 kts 255°
2026-05-04 12:24 36.64143 119.11501 152 ft 2 kts 255°
2026-05-04 12:25 36.64147 119.11521 153 ft 2 kts 255°
2026-05-04 12:25 36.64151 119.11541 155 ft 2 kts 211°
2026-05-04 12:25 36.64166 119.11542 156 ft 2 kts 163°
2026-05-04 12:27 36.64149 119.11550 156 ft 7 kts 152°
2026-05-04 12:27 36.64141 119.11616 155 ft 8 kts 73°
2026-05-04 12:27 36.64175 119.11652 156 ft 8 kts
2026-05-04 12:28 36.64267 119.11622 155 ft 22 kts 343°
2026-05-04 12:28 36.64461 119.11552 155 ft 33 kts 344°
2026-05-04 12:28 36.64685 119.11471 155 ft 34 kts 343°
2026-05-04 12:28 36.64913 119.11391 155 ft 34 kts 344°
2026-05-04 12:29 36.65128 119.11312 155 ft 34 kts 343°
2026-05-04 12:29 36.65365 119.11229 155 ft 35 kts 345°
2026-05-04 12:29 36.65531 119.11174 155 ft 18 kts
2026-05-04 12:29 36.65633 119.11240 155 ft 16 kts 36°
2026-05-04 12:30 36.65716 119.11317 154 ft 14 kts 35°
2026-05-04 12:30 36.65763 119.11362 152 ft 10 kts 40°
2026-05-04 12:30 36.65772 119.11477 147 ft 12 kts 155°
2026-05-04 12:30 36.65739 119.11490 147 ft 0 kts 164°
2026-05-04 12:31 36.65725 119.11495 147 ft 10 kts 164°
2026-05-04 12:31 36.65433 119.11597 150 ft 79 kts 163°
2026-05-04 12:31 36.64712 119.11860 152 ft 135 kts 164°
2026-05-04 12:31 36.63672 119.12237 301 ft 168 kts 164°
2026-05-04 12:32 36.62564 119.12636 1109 ft 163 kts 167°
2026-05-04 12:32 36.60394 119.13451 2415 ft 177 kts 169°
2026-05-04 12:32 36.59146 119.13892 2859 ft 198 kts 169°
2026-05-04 12:33 36.58240 119.14212 3314 ft 202 kts 169°
2026-05-04 12:33 36.56410 119.14847 4182 ft 210 kts 169°
2026-05-04 12:33 36.54974 119.15284 4862 ft 213 kts 181°
2026-05-04 12:33 36.53585 119.14827 5463 ft 209 kts 220°
2026-05-04 12:34 36.52726 119.13460 6050 ft 209 kts 253°
2026-05-04 12:34 36.52650 119.11677 6652 ft 211 kts 288°
2026-05-04 12:34 36.53073 119.10591 7046 ft 213 kts 304°
2026-05-04 12:34 36.54220 119.08571 7900 ft 217 kts 306°
2026-05-04 12:35 36.57465 119.02890 10252 ft 228 kts 307°
2026-05-04 12:35 36.61196 118.96292 12782 ft 237 kts 307°
2026-05-04 12:35 36.63733 118.91791 14391 ft 243 kts 307°
2026-05-04 12:35 36.67738 118.81483 16923 ft 278 kts 279°
2026-05-04 12:36 36.68852 118.70803 17687 ft 343 kts 279°
2026-05-04 12:36 36.70160 118.58010 18207 ft 401 kts 279°
2026-05-04 12:36 36.71104 118.48664 19036 ft 415 kts 279°
2026-05-04 12:36 36.72537 118.34278 20749 ft 421 kts 279°
2026-05-04 12:37 36.74478 118.14595 22655 ft 434 kts 278°
2026-05-04 12:37 36.75441 118.04656 23534 ft 440 kts 278°
2026-05-04 12:37 36.77401 117.84374 25020 ft 448 kts 278°
2026-05-04 12:37 36.78386 117.73922 25763 ft 451 kts 278°
2026-05-04 12:38 36.79852 117.58349 26896 ft 452 kts 278°
2026-05-04 12:38 36.81732 117.37890 28943 ft 444 kts 279°
2026-05-04 12:38 36.82211 117.27785 29906 ft 445 kts 264°
2026-05-04 12:38 36.75777 117.14728 31142 ft 462 kts 219°
2026-05-04 12:39 36.65447 117.05290 32317 ft 458 kts 220°
2026-05-04 12:39 36.55249 116.95894 33535 ft 454 kts 220°
2026-05-04 12:39 36.45455 116.86816 34285 ft 432 kts 225°
2026-05-04 12:39 36.36031 116.77754 34710 ft 426 kts 212°
2026-05-04 12:40 36.23034 116.66673 35063 ft 439 kts 221°